< < Back
Terminal Aerodrome Forecast


Current Version              Previous Versions:   1  2  3  4  5  6  7  8  9  

Terminal Aerodrome Forecast

179
FTUS44 KOHX 251100
TAFBNA
TAF
KBNA 251138Z 2512/2612 19003KT P6SM FEW250
     FM251400 26008KT P6SM SCT040
     FM260700 32004KT 4SM BR SCT010=

Latest METAR

213
SAUS70 KWBC 260756
MTRBNA
METAR KBNA 260753Z 00000KT 4SM BR CLR 14/14 A3002 RMK AO2 SLP160
T01440139


USA.gov is the U.S. government's official web portal to all federal, state and local government web resources and services.